Location: La Tine
(46.4708°N, 7.0525°E)
Time: 23:44:30
(UTC+00:00)

Cosmos 1833 Rocket - Pass Details

Date: 25 January 2021
Orbit: 833 x 839 km, 71.0° (Epoch: 03 March)

Event Time Altitude Azimuth Distance (km) Brightness Sun altitude
Rises 19:52:17 0° 322° (NW) 3,390 6.4 -35.4°
Reaches altitude 10° 19:55:13 10° 307° (NW) 2,452 5.7 -35.9°
Maximum altitude 19:59:23 22° 259° (W) 1,759 4.8 -36.6°
Enters shadow 20:02:12 15° 222° (SW) 2,100 5.0 -37.0°
